Showing default

NAVSPASUR ROD 1, 1515

Orbit data source: Space-Track

NAVSPASUR ROD 1, 1515 is a payload satellite owned by NRL (US) in LEO that was launched on Fri, 13 Aug 1965 UTC via a THOR ABLESTAR launch vehicle from the Air Force Western Test Range (AFWTR). Payload-class satellites include a variety of spacecraft equipped with specific instruments for various scientific and technological missions. These include communications satellites like Starlink; space stations such as the ISS; scientific satellites like the Hubble; Earth observation satellites from companies like Planet Labs, Umbra, and HawkEye 360; GPS; miniature CubeSats for education and research; and military/defense satellites.

Loading next visibility...
Identifier
1515, 1965-065G
Orbit
LEO
Country
Flag of USUS
Related business
Manufacturer
NRL
Mission
Spacecraft
Bus & Motor
LONG ROD, Unknown motor
Mass
3 kg wet, 3 kg dry
Launch date (UTC)
1965-08-13 (60 years ago)
Launch vehicle
THOR ABLESTAR
Launch site
Air Force Western Test Range (AFWTR)
Object type
Payload
Rocket body
Debris
Shape & HBR
Unknown
Radar Cross Section
Small (<0.1 m²)

Expand to show TLE details & history
Last TLE update: 1 day ago

TLE from 1 day ago
0 NAVSPASUR ROD 1
1 01515U 65065G   25347.65559190  .00000545  00000-0  82166-3 0  9995
2 01515  90.0105 213.9099 0059389 131.4911 285.5916 13.50825156955276
Epoch: 2025-12-13T15:44Z
TLE epoch observation values (Epoch: 2025-12-13T15:44:03.140Z)
Latitude
56.5192°
Longitude
-104.69872°
Altitude
1,067.101 km
Speed
7.329 km/s
True Right ascension
14h 15m 34s
True Declination
56° 22' 02"
Sunlit
Object was in daylight at epoch
Visualization orbit readout
Latitude
Unknown
Longitude
Unknown
Altitude
Unknown
Speed
Unknown
Apparent Right ascension
Unknown
Apparent Declination
Unknown
Sunlit
N/A
Visualization observer readout
Local Sidereal Time
14:31:02
Azimuth
Unknown
Elevation
Unknown
Doppler factor
Unknown
Orbital elements
Apogee altitude
1,110.484 km
Perigee altitude
1,022.061 km
Semi-major axis
7,444.41 km
Eccentricity
0.00594
Inclination
90.0105°
RAAN
213.9099°
Arg. of periapsis
131.4911°
True anomaly
284.9348°
Mean anomaly
285.5916°
Eccentric anomaly
285.26333°
Mean motion
3.37907 °/min
Orbital period
106.54 mins
BSTAR
0.00082166
Loading maneuver chart data...
Computing Atmospheric mass density...
Loading historical data...
Loading historical data...
Loading historical data...
Loading historical data...
Loading historical data...
Loading historical data...
Loading historical data...

Documentation

Showing up to 5 results
|